Regional Weather Roundup
Issued by NWS Sioux Falls, SD

Home | Current Version | Previous Version | Text Only | Print | Product List | Glossary On
Versions: 1 2 3 4 5 6 7 8 9 10 11 12 13 14 15 16 17 18 19 20 21 22 23 24 25 26 27 28 29 30 31 32 33 34 35 36 37 38 39 40 41 42 43 44 45 46 47 48 49 50
000
ASUS43 KFSD 261202
RWRFSD

WEATHER ROUNDUP FOR SE SOUTH DAKOTA/SW MINNESOTA/NW IOWA
NATIONAL WEATHER SERVICE SIOUX FALLS SD
700 AM CDT TUE JUL 26 2016

NOTE: "FAIR" INDICATES FEW OR NO CLOUDS BELOW 12,000 FEET WITH NO
SIGNIFICANT WEATHER AND OR OBSTRUCTIONS TO VISIBILITY.


SDZ038>040-050-052>070-261300-
SOUTHEAST SOUTH DAKOTA

CITY           SKY/WX    TMP DP  RH WIND       PRES   REMARKS
BROOKINGS      CLEAR     66  62  87 S5        30.06R
CHAMBERLAIN    CLEAR     72  63  74 S6        30.00S
6HR MIN TEMP:  69; 6HR MAX TEMP:  75;

HURON          CLEAR     66  61  84 S9        30.01R
6HR MIN TEMP:  65; 6HR MAX TEMP:  73;

MADISON        FAIR      63  63 100 S6        30.07R
MITCHELL       CLEAR     65  62  90 S8        30.03R
6HR MIN TEMP:  63; 6HR MAX TEMP:  74;

SIOUX FALLS    PTCLDY    70  63  78 S7        30.06S
6HR MIN TEMP:  68; 6HR MAX TEMP:  74;

WINNER         FAIR      73  60  63 S17       30.01S
YANKTON        CLEAR     64  61  88 CALM      30.05R
$$

MNZ071-072-080-081-089-090-097-098-261300-
SOUTHWEST MINNESOTA

CITY           SKY/WX    TMP DP  RH WIND       PRES   REMARKS
FAIRMONT       CLEAR     64  61  88 S3        30.07R
JACKSON        CLEAR     68  61  77 SW5       30.09S
LUVERNE        CLEAR     61  59  94 CALM      30.08S
MARSHALL       CLEAR     73  64  73 SW17      30.02R
6HR MIN TEMP:  68; 6HR MAX TEMP:  73;

MONTEVIDEO     CLEAR     70  64  83 SW8       30.02S
REDWOOD FALLS  CLEAR     67  62  84 S8        30.03S
TRACY          CLEAR     71  65  82 SW15      30.04S
WINDOM         CLEAR     70  63  78 SW9       30.07S
WORTHINGTON    CLEAR     70  64  81 MISG      30.09R
$$

IAZ001>003-012>014-020>022-031-032-NEZ013-014-SDZ071-261300-
NORTHWEST IOWA

CITY           SKY/WX    TMP DP  RH WIND       PRES   REMARKS
CHEROKEE       CLEAR     61  61 100 CALM      30.09S
DENISON        CLEAR     61  61 100 CALM      30.08S
ESTHERVILLE    CLEAR     64  63  96 SW7       30.08S
LE MARS        CLEAR     64  63  94 CALM      30.09R
SHELDON        CLEAR     64  63  94 SE5       30.07S
SIOUX CITY     CLEAR     65  62  90 E5        30.07S
6HR MIN TEMP:  63; 6HR MAX TEMP:  71;

SPENCER        CLEAR     63  61  93 S5        30.09S
6HR MIN TEMP:  61; 6HR MAX TEMP:  67;

STORM LAKE     CLEAR     66  63  88 S5        30.10S
$$

ABBREVIATIONS USED IN REMARKS
   TC - TEMPERATURE IN CELSIUS
  WCI - WIND CHILL INDEX
   HX - HEAT INDEX
  VSB - VISIBILITY





USA.gov is the U.S. government's official web portal to all federal, state and local government web resources and services.